Location: Bailleul
(50.3375°N, 2.8513°E)
Time: 05:46:54
(UTC+00:00)

NOSS 0 Rocket - Pass Details

Date: 19 April 2021
Orbit: 935 x 955 km, 70.0° (Epoch: 09 May)

Event Time Altitude Azimuth Distance (km) Brightness Sun altitude
Rises 19:20:02 0° 329° (NNW) 3,625 8.0 -5.3°
Reaches altitude 10° 19:22:38 10° 334° (NNW) 2,680 7.2 -5.7°
Maximum altitude 19:28:46 58° 53° (NE) 1,106 4.2 -6.6°
Drops below altitude 10° 19:34:54 10° 132° (SE) 2,677 5.7 -7.4°
Enters shadow 19:35:24 - 133° (SE) 2,861 5.8 -7.5°
